sat.trackr.live / text

‹ back to catalog

STARLINK-34711

NORAD 64912 · 2025-157J

PAYLOAD ACTIVE UNKNOWN

§ Identity

Operator
Country
US
Launch date
2025-07-26
Launch site
AFETR
Launch vehicle
Mass (kg)
RCS (m²)

Purposes: comms

External: N2YO · Heavens-Above · Gunter

§ Orbital elements

Epoch: 2026-05-24T23:42:55.714176Z

Period
94.11 min
Inclination
53.1590°
Eccentricity
0.0001141
Mean motion
15.30205520 rev/d
Perigee alt
474.4 km
Apogee alt
476.0 km
Semi-major
6,853.3 km
B*
1.0533e-3
RAAN
351.3983°
Arg perigee
72.5503°
Mean anomaly
287.5622°
Rev number
4,780

§ Raw data

STARLINK-347111 64912U 25157J   26144.98814484  .00030972  00000+0  10533-2 0  99992 64912  53.1590 351.3983 0001141  72.5503 287.5622 15.30205520 47802

JSON: /api/v1/satellites/64912 · /tle

For live sub-satellite position, see the globe view (requires WebGL).

§ Visibility from observer

Set your observer location to see the next 7 days of passes ≥ 10°. The values pass through the URL so the page stays shareable.

No JS? Fill the form by hand. The geolocation button needs JavaScript.